Theta_e
278 279 278 279 279 279 278 278 278 279 279 279 279 279 279 281 284 285 284 284 283 284 284 283 284 284 284 284 284 283 283 283 281 280 282 284 283 283 284 284 283 283 283
277 278 278 278 278 277 277 277 277 277 278 278 278 278 279 281 283 283 283 283 283 282 283 283 282 284 282 282 282 281 281 281 280 278 279 280 281 283 282 281 282 283 281
277 277 277 277 277 276 276 277 277 276 276 277 278 278 279 280 281 282 283 283 283 283 282 282 282 281 280 280 280 280 280 281 280 279 275 278 279 281 280 279 280 279 282
276 276 276 276 276 276 276 276 275 275 275 276 276 277 278 279 280 281 282 283 283 282 282 282 281 281 281 280 281 281 281 281 281 279 278 278 278 279 279 277 277 278 278
274 273 274 275 276 275 275 275 274 274 274 275 275 275 276 278 280 280 281 283 283 282 283 283 283 282 284 283 282 281 280 279 279 278 277 277 276 277 277 277 277 277 278
271 271 273 273 273 273 274 273 273 273 273 274 274 275 275 278 281 283 283 282 283 283 282 282 282 282 282 284 285 285 282 279 278 279 278 277 278 278 278 277 277 276 273
270 271 271 271 271 271 272 272 271 271 272 272 273 274 274 277 281 284 284 283 283 283 282 281 281 282 281 281 282 283 283 284 284 280 279 279 278 278 278 277 277 276 275
269 270 270 269 271 270 270 270 269 270 270 271 272 272 274 276 280 283 283 283 283 282 282 281 280 280 279 279 278 279 279 280 281 281 279 279 279 279 277 277 277 276 277
271 271 272 273 271 270 269 268 269 269 269 270 272 272 273 273 279 281 282 281 281 281 281 281 280 279 280 282 278 276 276 278 282 283 283 283 284 284 284 281 274 269 273
271 270 271 272 270 268 268 268 269 269 270 271 271 271 272 272 277 281 281 280 278 278 278 279 280 278 281 282 278 276 275 276 275 276 276 278 279 276 282 279 277 274 273
271 270 268 268 267 267 267 268 268 268 269 268 269 270 271 272 274 279 282 279 278 277 277 278 278 281 281 282 282 278 277 277 277 277 275 274 270 270 270 271 273 275 274
267 266 265 265 266 267 266 267 268 268 267 267 267 269 271 272 276 278 280 281 281 279 278 278 278 281 281 282 281 281 282 281 275 272 269 266 267 268 268 269 269 270 272
263 262 263 264 265 267 266 266 265 267 266 266 267 268 269 272 274 277 278 280 280 279 280 280 281 282 282 281 281 280 276 270 267 265 265 265 267 269 266 264 262 264 268
261 261 262 263 263 265 265 264 264 265 266 267 267 267 268 271 272 273 275 277 278 278 279 279 280 281 280 279 277 277 274 272 269 270 268 269 267 263 263 265 268 267 268
261 261 261 262 263 261 262 263 265 266 268 267 267 269 268 269 272 276 276 276 277 279 275 270 271 273 275 275 274 272 271 269 267 266 266 266 268 266 265 262 263 263 267
259 260 260 261 260 260 260 261 265 268 269 270 271 271 271 274 274 276 277 277 279 277 274 272 272 272 271 271 270 268 267 268 269 265 265 265 264 264 264 263 262 264 266
258 259 259 259 259 258 259 259 259 263 267 268 269 271 272 273 273 274 275 276 275 271 264 266 266 267 268 267 265 264 265 265 263 260 260 259 260 259 259 262 264 265 266
258 258 257 257 257 258 258 259 260 259 259 261 266 268 270 271 272 273 274 269 262 264 260 259 260 262 261 263 262 261 260 259 258 260 259 257 255 256 259 261 263 264 265
256 256 257 257 257 257 257 257 259 259 260 260 262 265 267 269 271 271 270 261 257 258 257 255 254 255 256 256 257 255 255 254 255 254 255 257 255 255 259 262 262 264 266
256 257 257 256 256 256 257 257 258 259 260 260 260 261 264 264 264 263 261 256 253 253 256 256 258 253 252 253 254 253 253 252 253 252 253 255 255 254 260 261 262 265 266
256 256 256 255 255 256 257 257 258 258 259 259 260 262 268 264 261 261 261 260 252 253 254 253 254 253 253 254 252 252 253 255 253 253 253 254 254 258 260 263 264 265 267
256 255 255 255 256 256 256 258 258 260 260 260 260 261 265 261 260 260 260 259 256 254 254 254 255 254 255 255 255 254 254 255 254 254 254 255 254 258 260 262 264 266 267
256 255 255 255 255 256 257 257 258 259 259 259 260 259 259 259 259 258 258 259 255 255 255 251 253 254 254 254 253 255 257 257 256 255 256 256 256 258 261 262 264 265 267
256 254 254 254 254 255 256 257 258 258 259 259 259 259 259 258 258 258 258 259 259 256 254 254 254 255 255 254 254 254 256 258 256 260 259 259 259 260 262 262 264 265 266
254 253 252 253 253 254 255 256 257 257 258 258 259 259 259 259 259 259 260 260 258 256 256 256 254 254 254 254 255 254 255 261 262 263 262 261 261 261 262 263 263 265 267
253 252 252 253 254 255 255 256 256 257 257 258 258 259 259 259 259 259 260 260 260 259 258 258 256 254 255 256 255 257 259 264 264 264 263 263 262 262 262 263 264 266 267
Wind_Speed
11 12 12 12 12 13 12 13 14 16 16 17 18 19 18 18 16 13 12 13 12 10 8 7 9 7 5 5 5 4 5 4 7 2 3 3 2 4 4 3 3 4 4
11 12 13 12 13 12 12 14 15 16 17 17 19 19 18 17 16 15 14 13 11 11 9 7 7 5 5 4 4 5 4 4 3 4 3 2 4 3 3 3 4 4 4
12 12 12 13 13 14 14 15 16 16 17 18 17 18 17 17 17 15 15 14 11 10 9 7 7 6 5 3 4 4 3 3 3 3 3 2 2 0 1 2 3 4 4
11 12 13 13 13 13 14 15 16 16 17 17 17 17 18 17 17 16 16 16 11 8 6 5 5 6 6 6 5 5 5 4 4 4 3 3 2 2 1 3 3 2 3
12 12 13 12 13 14 14 15 16 16 15 16 17 17 17 16 13 16 16 16 11 8 6 4 3 4 9 6 4 5 6 5 4 4 4 3 2 2 4 2 3 4 4
11 13 12 11 12 12 14 15 16 16 16 16 16 17 18 13 26 29 23 14 12 9 6 5 4 7 9 14 14 13 9 6 7 5 5 6 6 4 2 2 2 4 4
12 13 13 12 12 11 12 14 15 16 17 17 16 17 17 17 29 28 26 13 12 9 6 5 6 5 6 5 9 11 10 11 12 6 7 7 5 4 3 5 6 5 6
12 13 13 11 13 10 12 13 14 13 15 16 16 16 16 15 29 28 26 11 9 6 7 7 7 6 6 5 4 4 4 4 5 3 2 3 4 6 6 6 8 6 5
15 16 17 14 14 11 14 15 15 14 15 15 14 17 16 17 28 26 21 9 6 3 3 5 5 5 8 9 5 5 4 4 6 9 11 13 14 14 11 3 1 1 8
15 17 18 17 10 14 16 16 14 13 15 14 17 15 16 16 23 25 19 7 6 3 3 3 8 5 9 10 4 5 6 5 4 3 2 7 8 5 10 3 3 7 6
17 14 16 18 17 17 17 15 13 14 13 14 15 14 13 12 15 24 22 9 5 4 3 2 3 8 10 10 11 7 6 5 7 5 4 3 2 3 4 4 5 6 6
16 17 18 17 14 14 17 15 14 14 13 13 14 13 9 11 16 20 22 20 16 5 4 3 3 7 8 8 5 6 8 2 2 2 1 2 2 3 4 5 6 5 6
16 16 16 17 15 15 15 14 14 13 11 11 11 10 11 10 7 20 22 20 17 10 2 6 10 10 11 7 3 5 2 3 2 1 2 3 3 4 3 2 3 5 7
16 16 15 15 16 13 12 13 12 11 10 11 10 12 11 11 9 9 9 8 11 10 9 4 5 6 5 5 2 1 1 1 2 2 2 1 2 2 2 2 2 3 5
15 15 14 13 13 15 12 12 12 13 14 12 11 10 11 10 9 18 16 10 9 11 5 1 1 1 2 1 1 2 2 2 1 1 1 2 2 2 2 1 2 2 6
15 13 12 12 13 12 12 12 19 25 25 27 28 18 11 17 22 22 21 19 14 19 6 5 3 3 3 2 1 1 2 2 2 1 1 1 2 2 3 3 2 5 8
15 15 12 13 11 12 12 12 13 14 24 22 23 23 23 22 20 20 20 19 14 9 2 3 2 3 2 1 1 1 2 2 1 2 2 3 2 2 2 4 5 6 8
13 17 11 11 11 11 11 12 10 11 13 12 16 21 20 21 20 19 16 13 6 7 2 2 2 2 1 1 1 1 2 2 2 3 3 3 3 3 3 5 6 7 8
12 10 11 11 10 12 11 11 10 11 11 11 11 14 12 22 22 14 18 3 2 4 3 3 2 2 2 2 2 2 3 3 3 2 3 3 4 3 4 6 7 11 11
11 15 13 10 11 10 10 10 10 10 10 10 9 10 10 11 4 7 4 2 2 3 3 3 3 2 3 3 3 3 3 3 3 3 4 4 4 3 6 8 7 8 9
9 10 14 10 10 10 10 10 11 11 10 9 9 10 23 10 8 7 7 5 3 4 4 3 4 4 4 4 3 3 3 3 3 4 4 4 4 5 4 7 8 9 9
9 10 10 10 10 10 10 11 11 10 11 10 10 10 22 8 7 7 7 5 5 4 4 4 4 4 4 4 4 4 4 4 5 4 5 4 4 5 5 8 8 8 10
9 11 11 10 10 13 10 10 10 11 11 11 10 10 9 8 8 8 8 7 5 5 5 3 4 5 4 5 4 5 5 6 5 4 5 4 4 5 6 7 7 9 9
9 10 10 10 10 10 10 11 11 13 12 11 10 9 9 9 9 9 9 8 7 6 5 5 5 7 6 5 5 5 6 6 4 6 8 6 6 6 6 7 8 10 10
8 9 9 9 10 10 11 11 11 11 11 11 10 9 10 10 10 9 9 8 7 6 7 7 5 7 9 10 9 8 7 12 10 8 6 7 8 9 9 8 9 10 12
8 9 8 9 9 10 10 11 12 12 12 11 11 11 10 10 10 10 9 9 8 8 8 7 8 10 10 8 9 10 11 12 11 13 8 7 8 8 7 9 12 9 6
Wind_Direction
308 303 302 301 303 303 301 302 304 304 305 305 306 306 304 302 302 293 285 282 270 261 245 223 230 214 213 198 188 184 196 186 223 237 227 229 230 240 275 280 252 247 243
302 302 301 304 307 305 306 309 311 308 306 308 311 308 305 304 306 302 292 283 272 263 247 231 222 223 217 199 195 195 190 187 174 200 229 248 230 231 227 264 282 281 251
300 300 303 310 309 310 311 313 313 312 311 307 308 307 304 304 303 300 297 282 263 253 249 223 227 197 206 203 201 198 188 204 173 178 222 239 266 210 268 252 253 255 261
301 306 308 309 310 309 310 312 312 311 307 306 305 305 303 300 301 301 298 292 263 247 234 228 221 209 206 198 203 203 194 194 189 204 201 230 232 265 248 282 283 216 251
300 301 301 303 307 307 308 310 311 309 305 303 304 304 303 302 298 299 296 290 249 226 213 219 229 230 231 226 228 215 189 192 196 209 211 201 205 230 247 224 266 289 277
294 294 297 294 293 299 303 308 310 309 307 305 307 307 308 304 303 303 297 289 261 236 215 197 230 251 246 243 241 230 199 190 202 215 237 249 254 241 221 222 269 305 313
294 294 293 290 287 288 294 304 307 308 307 306 306 312 307 308 311 311 307 288 282 214 204 203 216 229 215 226 250 253 254 250 231 206 228 235 241 225 210 260 267 253 257
291 292 292 284 287 293 301 302 306 306 304 304 306 308 308 309 315 317 319 310 270 228 207 200 215 212 201 196 204 216 220 228 247 257 189 209 204 226 214 233 247 260 269
311 316 313 304 296 304 307 308 306 304 305 303 302 308 308 307 313 319 322 315 316 300 226 205 212 221 234 246 194 209 219 234 238 259 246 244 247 253 254 238 234 262 290
320 320 316 316 319 313 307 304 305 300 300 301 304 301 299 300 306 319 321 300 289 257 225 230 237 224 254 251 209 197 221 216 203 234 275 270 276 281 285 270 268 272 277
318 332 328 316 314 308 305 308 304 300 296 304 300 301 296 297 303 315 321 311 274 264 242 236 226 256 260 251 234 197 213 206 239 221 217 222 233 232 239 241 227 239 264
327 322 318 313 310 307 306 305 309 308 307 302 305 299 303 304 302 318 322 323 312 245 224 224 224 242 241 241 243 244 253 330 118 149 193 248 242 241 239 228 227 229 230
322 316 314 310 308 308 306 315 313 307 307 304 299 316 310 309 303 318 315 314 314 305 220 224 235 231 231 238 291 300 17 100 120 68 268 230 214 230 253 279 273 250 254
318 316 313 313 311 313 325 309 301 302 302 299 319 309 305 305 313 308 305 315 302 294 283 275 270 244 195 203 182 138 70 122 178 237 234 256 284 319 291 240 278 279 277
318 316 313 313 320 317 310 311 314 313 299 317 305 301 305 304 309 320 321 318 315 316 243 133 136 190 221 195 116 31 352 346 323 275 287 267 281 316 281 285 253 271 277
317 315 317 318 318 316 314 314 314 316 317 320 310 311 306 318 323 319 321 325 348 7 20 22 35 33 56 60 62 291 290 282 272 280 275 248 257 270 291 293 265 267 275
313 314 320 318 316 317 315 315 316 315 318 322 326 319 324 320 329 324 322 321 3 26 55 36 31 21 8 338 294 250 254 264 301 252 228 243 247 254 269 278 278 274 273
312 319 314 315 313 313 313 310 316 310 317 321 322 320 327 328 327 327 337 29 9 15 13 354 337 333 304 284 282 252 283 304 290 270 269 249 246 235 273 270 273 271 272
319 314 315 313 312 313 309 308 306 308 309 311 317 319 323 323 321 340 360 14 325 325 322 328 276 287 284 279 270 261 233 244 244 250 254 238 243 218 261 274 276 273 272
313 309 318 315 312 310 308 308 309 311 308 317 318 317 315 308 355 331 328 308 311 287 297 300 299 282 268 254 261 252 267 271 266 251 248 245 246 217 263 275 271 275 279
312 315 316 308 308 307 306 307 305 307 308 313 312 313 319 344 331 317 316 309 269 279 283 267 280 276 269 266 263 266 254 255 241 249 250 251 245 255 256 278 279 275 277
315 310 312 311 309 308 308 305 306 308 311 312 312 313 323 324 314 307 303 289 279 260 253 250 265 256 254 250 251 251 251 249 249 247 252 251 246 263 270 269 270 275 281
309 314 315 312 309 309 308 311 308 314 310 310 311 313 316 313 309 305 300 296 279 276 271 252 257 266 250 244 233 230 247 250 233 218 241 245 242 254 260 271 282 282 288
315 316 312 309 310 311 310 309 311 310 310 309 308 307 307 303 298 295 292 292 290 278 267 261 255 256 262 257 245 237 235 248 230 245 233 244 251 256 263 268 269 279 281
314 311 309 308 308 309 310 309 311 310 310 308 308 307 306 305 303 301 299 294 278 273 276 273 253 256 259 257 256 250 248 266 264 249 234 238 248 253 259 267 272 276 276
307 306 303 303 304 308 310 310 310 310 309 309 309 308 306 305 303 302 300 295 291 286 277 269 260 256 260 264 257 258 253 254 249 246 240 238 244 251 252 258 267 272 285